Tracking 23764 objects as of 17-Oct-2021
HD Live streaming from Space Station
objects crossing your sky now

STARLINK-3095

Track STARLINK-3095 now!
10-day predictions
STARLINK-3095 is classified as:


NORAD ID: 49160
Int'l Code: 2021-082AG
Perigee: 364.1 km
Apogee: 369.5 km
Inclination: 70.0 °
Period: 91.7 minutes
Semi major axis: 6737 km
RCS: Unknown
Launch date: September 14, 2021
Source: United States (US)
Launch site: AIR FORCE WESTERN TEST RANGE (AFWTR)
aabbcc
Your satellite tracking list
Your tracking list is empty




NASA's NSSDC Master Catalog

Two Line Element Set (TLE):
1 49160U 21082AG  21290.50001157 -.00021153  00000-0 -17596-3 0  9991
2 49160  70.0013  33.0142 0003999 286.4079  29.4513 15.69732298  6420
Source of the keplerian elements: AFSPC